This is the latest recevied weather packets stored in our database for station/object KC3BAN-3. If no packets are shown the sender has not sent any weather packets the latest 10 day(s).
| Time | Temp. | Humidity | Pressure | Rain* | Wind** | Luminosity | Snow |
|---|---|---|---|---|---|---|---|
| 1777755576 | 11.67° C | 90% | 1010.5 hPa | 0.25 mm | - | - | - |
| 1777755543 | 11.67° C | 90% | 1010.4 hPa | 0.25 mm | - | - | - |
| 1777754505 | 11.67° C | 88% | 1010.6 hPa | 0.25 mm | - | - | - |
| 1777753476 | 11.67° C | 89% | 1010.7 hPa | 0.25 mm | - | - | - |
| 1777753176 | 11.67° C | 90% | 1010.5 hPa | 0.25 mm | - | - | - |
| 1777752874 | 11.67° C | 89% | 1010.2 hPa | 0.25 mm | - | - | - |
| 1777752574 | 11.67° C | 90% | 1010 hPa | 0.25 mm | - | - | - |
| 1777752273 | 11.67° C | 90% | 1010.4 hPa | 0 mm | - | - | - |
| 1777751975 | 11.67° C | 89% | 1010.5 hPa | 0 mm | - | - | - |
| 1777751673 | 11.67° C | 89% | 1010.6 hPa | 0 mm | - | - | - |
| 1777751379 | 11.67° C | 89% | 1010.7 hPa | 0 mm | - | - | - |
| 1777751074 | 11.67° C | 88% | 1010.7 hPa | 0 mm | - | - | - |
| 1777750775 | 11.67° C | 87% | 1010.8 hPa | 0 mm | - | - | - |
| 1777750476 | 12.22° C | 86% | 1010.8 hPa | 0 mm | - | - | - |
| 1777750173 | 12.22° C | 87% | 1010.9 hPa | 0 mm | - | - | - |
| 1777749873 | 11.67° C | 85% | 1010.9 hPa | 0 mm | - | - | - |
| 1777749573 | 11.67° C | 85% | 1010.8 hPa | 0 mm | - | - | - |
| 1777749400 | 11.67° C | 85% | 1011 hPa | 0 mm | - | - | - |
| 1777748970 | 11.67° C | 88% | 1011.3 hPa | 0 mm | - | - | - |
| 1777748666 | 11.67° C | 88% | 1011.2 hPa | 0 mm | - | - | - |
| 1777748489 | 11.67° C | 90% | 1011.4 hPa | 0 mm | - | - | - |
| 1777747746 | 11.67° C | 92% | 1011.4 hPa | 0 mm | - | - | - |
| 1777747446 | 11.67° C | 92% | 1011.3 hPa | 0 mm | - | - | - |
| 1777746978 | 11.67° C | 93% | 1011.6 hPa | 0.25 mm | - | - | - |
| 1777746547 | 11.67° C | 93% | 1011.6 hPa | 0.25 mm | - | - | - |
* Rain latest hour (hover to see other rain measurements)
** Current wind speed in m/s (hover to see current wind gust speed)